Location: Unspecified
(0.0000°N, 0.0000°E)
Time: 18:28:13
(UTC+00:00)

N. Korean satellite - Pass Details

Date: 15 February 2019
Orbit: 457 x 508 km, 97.2° (Epoch: 17 April)

Event Time Altitude Azimuth Distance (km) Brightness Sun altitude
Rises 05:17:31 0° 32° (NNE) 2,464 10.4 -13.8°
Reaches altitude 10° 05:19:49 10° 46° (NE) 1,591 9.6 -13.2°
Maximum altitude 05:22:35 23° 101° (E) 1,007 9.2 -12.6°
Drops below altitude 10° 05:25:22 10° 156° (SSE) 1,598 9.7 -11.9°
Sets 05:27:41 0° 170° (S) 2,477 10.5 -11.3°
